星链-34115 (STARLINK-34115)

导读

STARLINK-34115是美国SpaceX公司星链(Starlink)星座的成员卫星,于2025年5月13日由美国发射入轨。星链项目旨在打造全球低轨卫星互联网系统,为全球尤其偏远地区提供高速宽带服务。作为Starlink大规模组网的一环,该卫星运行在近地轨道,助力扩展星座覆盖范围,提升全球卫星互联网服务的稳定性与容量,是SpaceX推进太空互联网基础设施建设的组成部分。

Basic Information
目录编号:
63972
目录名称:
STARLINK-34115
国际标识:
2025-099W
轨道中心:
EARTH
卫星名称:
星链-34115
卫星全名:
星链-34115 (STARLINK-34115)
卫星状态:
在轨 (已飞行480 天)
发射日期:
2025-05-13 UTC
国别 :
美国 (US)
星等 :
--
Orbit Information
数据来源 国际轨道数据
星历时间: 2026-09-05T08:21:27+0800
11小时前
查看轨道信息
半长轴: 6861.17km
偏心率: 0.0000397
轨道倾角: 42.995°
近地点辐角 300.304°
升交点赤经 239.854°
平近点角 59.777°
近地点: 482.76km
远地点: 483.306km
周期: 94.266分钟
每日圈数: 15.275855
Detailed Information
固有亮度:
5
最大亮度:
2.5
卫星平台:
Starlink V1.0
覆盖范围:
全球
运营商:
太空探索技术公司
运营商所在国:
美国
制造商(研发单位):
太空探索技术公司
制造商所在国:
美国
使用方式:
暂无
Satellite Introduction
Starlink 计划是 SpaceX 推出的全球卫星互联网项目,通过发射低轨道卫星,为全球尤其是偏远地区提供高速、低延迟的互联网服务。自 2019 年起,Starlink 已部署数千颗卫星,旨在缩小全球数字鸿沟,推动互联网普及。该项目还为军事、航空等行业提供通信支持,带来广泛经济效益。
2D Orbit Map
3D Orbit Map
Orbit Altitude Analysis Chart
Orbit Inclination Analysis Chart
Orbit Comprehensive Analysis Chart
View Comprehensive Chart
Conjunction Data List
Event ID Objects TCA Miss Dist (km) Collision Risk Probability Collision Risk Index (CRI) Action
CDM_260906-071305-708306-397221
2026-09-06T
07:13:09+0000
0.143 km
中距离
8.257974E-4 高风险 0.93
CDM_260906-185905-708306-397221
2026-09-06T
18:59:19+0000
0.627 km
远距离
6.810716E-5 中风险 0.72
CDM_260907-051705-612206-397222
2026-09-07T
05:17:47+0000
0.712 km
远距离
1.73103E-5 中风险 0.6
CDM_260903-004506-187306-397223
2026-09-03T
00:45:34+0000
1.189 km
极远距离
1.067809E-5 中风险 0.56
CDM_260907-091305-612206-397222
2026-09-07T
09:13:10+0000
1.183 km
极远距离
3.135892E-6 低风险 0.45
CDM_260906-053805-708306-397221
2026-09-06T
05:38:59+0000
1.807 km
极远距离
2.210456E-6 低风险 0.42
CDM_260906-203305-708306-397221
2026-09-06T
20:33:29+0000
1.971 km
极远距离
1.766004E-6 低风险 0.4
CDM_260906-084705-708306-397221
2026-09-06T
08:47:18+0000
2.127 km
极远距离
1.477036E-6 低风险 0.38
CDM_260907-073905-612206-397222
2026-09-07T
07:39:01+0000
1.603 km
极远距离
1.243484E-6 低风险 0.37
CDM_260906-172505-708306-397221
2026-09-06T
17:25:10+0000
2.663 km
极远距离
9.776289E-7 极低风险 0.35